WXForecasting.com
Aberdeen, SD - Weather Station Data
 
Daily Summary for April 26, 2017 Units:  English    Metric   Both
« Previous Day
Next Day »
Daily Weekly Monthly Yearly Custom
  Current: High: Low: Average:
Temperature: 33.0 °F 34.5 °F 31.1 °F 32.4 °F
Dew Point: 28.0 °F 30.0 °F 28.0 °F 28.8 °F
Humidity: 81 % 89 % 81 % 86 %
Wind Speed: 5.0 mph 14.0 mph 3.0 mph 7.4 mph
Wind Gust: 16.0 mph 21.0 mph - -
Wind:NNE - - SW
Pressure: 29.81 in 29.85 in 29.80 in -
Precipitation: 0.12 in      
Historical Graphs
 
 
Tabular Data for April 26, 2017
Time Temperature Dew Point Pressure Wind Wind Speed Wind Gust Humidity Rainfall Rate (Hourly) solar Conditions
00:00 34.3 °F 30.0 °F 29.85 in North 10.0 mph 19.0 mph 83 % 0.00 in 0 W/m2
00:15 34.5 °F 30.0 °F 29.85 in North 10.0 mph 16.0 mph 82 % 0.00 in 0 W/m2
00:30 34.3 °F 30.0 °F 29.85 in North 9.0 mph 17.0 mph 83 % 0.00 in 0 W/m2
00:45 34.1 °F 30.0 °F 29.84 in North 7.0 mph 19.0 mph 84 % 0.00 in 0 W/m2
01:00 33.9 °F 30.0 °F 29.85 in North 5.0 mph 13.0 mph 85 % 0.00 in 0 W/m2
01:15 33.7 °F 30.0 °F 29.85 in North 6.0 mph 17.0 mph 85 % 0.00 in 0 W/m2
01:30 33.6 °F 29.0 °F 29.85 in NE 4.0 mph 16.0 mph 84 % 0.00 in 0 W/m2
01:45 33.4 °F 29.0 °F 29.85 in North 4.0 mph 16.0 mph 85 % 0.00 in 0 W/m2
02:00 33.1 °F 29.0 °F 29.85 in NNW 9.0 mph 14.0 mph 86 % 0.00 in 0 W/m2
02:15 32.9 °F 30.0 °F 29.84 in NNE 5.0 mph 12.0 mph 87 % 0.00 in 0 W/m2
02:30 32.9 °F 30.0 °F 29.84 in North 11.0 mph 18.0 mph 88 % 0.00 in 0 W/m2
02:45 32.6 °F 30.0 °F 29.84 in North 6.0 mph 14.0 mph 88 % 0.00 in 0 W/m2
03:00 32.5 °F 29.0 °F 29.84 in NNW 8.0 mph 16.0 mph 88 % 0.00 in 0 W/m2
03:15 32.4 °F 29.0 °F 29.84 in North 8.0 mph 14.0 mph 88 % 0.00 in 0 W/m2
03:30 32.0 °F 29.0 °F 29.83 in NNE 5.0 mph 17.0 mph 88 % 0.00 in 0 W/m2
03:45 32.0 °F 29.0 °F 29.82 in North 8.0 mph 14.0 mph 88 % 0.00 in 0 W/m2
04:00 31.9 °F 29.0 °F 29.82 in North 8.0 mph 14.0 mph 88 % 0.00 in 0 W/m2
04:15 32.1 °F 29.0 °F 29.82 in NNE 5.0 mph 11.0 mph 88 % 0.00 in 0 W/m2
04:30 31.9 °F 29.0 °F 29.82 in North 10.0 mph 14.0 mph 88 % 0.00 in 0 W/m2
04:45 31.6 °F 29.0 °F 29.81 in North 5.0 mph 16.0 mph 88 % 0.00 in 0 W/m2
05:00 31.6 °F 29.0 °F 29.80 in NNW 4.0 mph 14.0 mph 89 % 0.00 in 0 W/m2
05:15 31.6 °F 29.0 °F 29.81 in NNW 3.0 mph 13.0 mph 89 % 0.00 in 0 W/m2
05:30 31.4 °F 29.0 °F 29.80 in North 12.0 mph 18.0 mph 89 % 0.00 in 0 W/m2
05:46 31.3 °F 28.0 °F 29.80 in NNE 10.0 mph 19.0 mph 88 % 0.00 in 0 W/m2
06:01 31.5 °F 28.0 °F 29.80 in North 8.0 mph 17.0 mph 88 % 0.00 in 0 W/m2
06:15 31.5 °F 28.0 °F 29.81 in North 10.0 mph 17.0 mph 88 % 0.00 in 0 W/m2
06:31 31.5 °F 28.0 °F 29.82 in NNW 4.0 mph 16.0 mph 88 % 0.00 in 0 W/m2
06:45 31.4 °F 28.0 °F 29.82 in NW 5.0 mph 16.0 mph 88 % 0.00 in 5 W/m2
07:01 31.3 °F 28.0 °F 29.83 in North 4.0 mph 14.0 mph 88 % 0.00 in 9 W/m2
07:16 31.1 °F 28.0 °F 29.84 in NNW 12.0 mph 16.0 mph 87 % 0.00 in 12 W/m2
07:31 31.2 °F 28.0 °F 29.84 in NNW 4.0 mph 12.0 mph 88 % 0.00 in 21 W/m2
07:46 31.2 °F 28.0 °F 29.84 in North 9.0 mph 14.0 mph 88 % 0.00 in 49 W/m2
08:01 31.4 °F 28.0 °F 29.85 in NNW 6.0 mph 19.0 mph 88 % 0.00 in 69 W/m2
08:16 31.5 °F 28.0 °F 29.85 in NNW 6.0 mph 14.0 mph 87 % 0.00 in 84 W/m2
08:31 31.8 °F 28.0 °F 29.85 in NNW 6.0 mph 15.0 mph 87 % 0.00 in 81 W/m2
08:46 31.9 °F 29.0 °F 29.85 in North 8.0 mph 14.0 mph 87 % 0.00 in 109 W/m2
09:01 31.8 °F 28.0 °F 29.84 in North 12.0 mph 16.0 mph 87 % 0.00 in 179 W/m2
09:16 31.8 °F 28.0 °F 29.84 in NW 5.0 mph 18.0 mph 87 % 0.00 in 153 W/m2
09:31 31.8 °F 28.0 °F 29.85 in NNW 6.0 mph 18.0 mph 87 % 0.00 in 220 W/m2
09:46 31.9 °F 29.0 °F 29.84 in NE 9.0 mph 17.0 mph 87 % 0.00 in 211 W/m2
10:01 32.0 °F 29.0 °F 29.84 in NNW 6.0 mph 18.0 mph 87 % 0.00 in 220 W/m2
10:16 31.8 °F 28.0 °F 29.84 in North 9.0 mph 17.0 mph 87 % 0.00 in 158 W/m2
10:31 31.8 °F 29.0 °F 29.84 in North 9.0 mph 16.0 mph 88 % 0.00 in 241 W/m2
10:46 31.8 °F 29.0 °F 29.84 in North 7.0 mph 18.0 mph 88 % 0.01 in 188 W/m2
11:01 31.5 °F 28.0 °F 29.84 in North 6.0 mph 17.0 mph 88 % 0.01 in 155 W/m2
11:16 31.5 °F 28.0 °F 29.85 in North 10.0 mph 14.0 mph 88 % 0.02 in 193 W/m2
11:31 31.4 °F 28.0 °F 29.85 in North 3.0 mph 13.0 mph 88 % 0.02 in 174 W/m2
11:46 31.6 °F 29.0 °F 29.84 in NNW 14.0 mph 16.0 mph 88 % 0.01 in 246 W/m2
12:01 32.0 °F 29.0 °F 29.84 in North 10.0 mph 18.0 mph 88 % 0.01 in 309 W/m2
12:16 32.5 °F 29.0 °F 29.83 in NNW 4.0 mph 18.0 mph 87 % 0.01 in 371 W/m2
12:31 32.9 °F 29.0 °F 29.83 in North 11.0 mph 20.0 mph 86 % 0.03 in 478 W/m2
12:46 32.6 °F 29.0 °F 29.83 in North 9.0 mph 18.0 mph 87 % 0.04 in 371 W/m2
13:01 32.5 °F 29.0 °F 29.82 in North 9.0 mph 21.0 mph 86 % 0.04 in 320 W/m2
13:16 32.5 °F 29.0 °F 29.82 in NW 6.0 mph 15.0 mph 86 % 0.04 in 269 W/m2
13:31 32.1 °F 29.0 °F 29.82 in North 13.0 mph 16.0 mph 87 % 0.02 in 227 W/m2
13:46 32.0 °F 29.0 °F 29.82 in NNW 8.0 mph 17.0 mph 87 % 0.02 in 246 W/m2
14:02 32.4 °F 29.0 °F 29.82 in NNW 10.0 mph 16.0 mph 87 % 0.02 in 229 W/m2
14:17 32.3 °F 29.0 °F 29.82 in NNE 13.0 mph 18.0 mph 87 % 0.02 in 320 W/m2
14:31 32.7 °F 29.0 °F 29.82 in NW 9.0 mph 18.0 mph 86 % 0.02 in 320 W/m2
14:46 32.8 °F 29.0 °F 29.82 in NNE 9.0 mph 17.0 mph 86 % 0.02 in 315 W/m2
15:01 32.7 °F 29.0 °F 29.82 in North 11.0 mph 17.0 mph 86 % 0.02 in 269 W/m2
15:16 32.8 °F 29.0 °F 29.82 in NNW 11.0 mph 13.0 mph 86 % 0.01 in 255 W/m2
15:31 32.7 °F 29.0 °F 29.82 in North 6.0 mph 14.0 mph 86 % 0.02 in 214 W/m2
15:46 33.0 °F 30.0 °F 29.82 in North 3.0 mph 13.0 mph 87 % 0.01 in 230 W/m2
16:02 33.2 °F 29.0 °F 29.81 in NNE 5.0 mph 13.0 mph 85 % 0.02 in 214 W/m2
16:16 33.0 °F 29.0 °F 29.82 in North 6.0 mph 17.0 mph 85 % 0.02 in 116 W/m2
16:31 32.7 °F 28.0 °F 29.81 in North 10.0 mph 16.0 mph 83 % 0.01 in 76 W/m2
16:46 32.6 °F 28.0 °F 29.82 in NNW 3.0 mph 14.0 mph 84 % 0.01 in 81 W/m2
17:02 32.5 °F 28.0 °F 29.81 in NW 9.0 mph 13.0 mph 84 % 0.00 in 74 W/m2
17:16 32.7 °F 28.0 °F 29.81 in NNE 4.0 mph 15.0 mph 84 % 0.00 in 162 W/m2
17:32 33.1 °F 29.0 °F 29.81 in NNW 8.0 mph 15.0 mph 84 % 0.00 in 288 W/m2
17:46 33.7 °F 29.0 °F 29.82 in North 6.0 mph 13.0 mph 84 % 0.00 in 250 W/m2
18:01 33.5 °F 29.0 °F 29.82 in North 6.0 mph 14.0 mph 84 % 0.00 in 100 W/m2
18:17 33.3 °F 29.0 °F 29.82 in NNW 8.0 mph 14.0 mph 84 % 0.00 in 144 W/m2
18:32 33.4 °F 29.0 °F 29.82 in NNE 5.0 mph 15.0 mph 83 % 0.00 in 183 W/m2
18:47 33.6 °F 29.0 °F 29.82 in NNW 4.0 mph 17.0 mph 83 % 0.00 in 123 W/m2
19:02 33.6 °F 29.0 °F 29.82 in North 9.0 mph 13.0 mph 82 % 0.00 in 70 W/m2
19:17 33.4 °F 29.0 °F 29.81 in NNW 4.0 mph 12.0 mph 82 % 0.00 in 58 W/m2
19:32 33.2 °F 28.0 °F 29.81 in North 4.0 mph 15.0 mph 82 % 0.00 in 42 W/m2
19:47 33.1 °F 30.0 °F 29.81 in North 8.0 mph 17.0 mph 87 % 0.00 in 39 W/m2
20:02 33.0 °F 28.0 °F 29.81 in NNE 5.0 mph 16.0 mph 81 % 0.00 in 25 W/m2
Compliments of Weather Underground - 1 mb

33 Visitors online right now
Max visitors today: 91 at 11:57 am EDT
This month: 91 at 04-01-2017 06:00 pm EDT
This year: 94 at 03-22-2017 06:40 pm EDT
All time: 104 at 01-04-2012 03:34 am EST
See Who is Online